This is the latest recevied weather packets stored in our database for station/object VE6HFD-WX. If no packets are shown the sender has not sent any weather packets the latest 1 day(s).
| Time | Temp. | Humidity | Pressure | Rain* | Wind** | Luminosity | Snow |
|---|---|---|---|---|---|---|---|
| 1777992626 | 0° C | 76% | 1022.7 hPa | 0 mm | 3.13 m/s, 348° | - | - |
| 1777992326 | 0° C | 76% | 1022.6 hPa | 0 mm | 3.58 m/s, 2° | - | - |
| 1777991996 | 0° C | 78% | 1022.6 hPa | 0 mm | 1.34 m/s, 34° | - | - |
| 1777991696 | 0° C | 79% | 1022.6 hPa | 0 mm | 2.68 m/s, 17° | - | - |
| 1777991396 | -0.56° C | 81% | 1022.5 hPa | 0 mm | 2.24 m/s, 21° | - | - |
| 1777991066 | -0.56° C | 82% | 1022.5 hPa | 0 mm | 3.13 m/s, 1° | - | - |
| 1777990766 | -1.11° C | 82% | 1022.5 hPa | 0 mm | 2.68 m/s, 23° | - | - |
| 1777990466 | -1.11° C | 84% | 1022.5 hPa | 0 mm | 3.13 m/s, 10° | - | - |
| 1777990136 | -1.67° C | 85% | 1022.5 hPa | 0 mm | 3.13 m/s, 6° | - | - |
| 1777989806 | -1.67° C | 86% | 1022.4 hPa | 0 mm | 3.13 m/s, 0° | - | - |
| 1777989506 | -2.22° C | 86% | 1022.3 hPa | 0 mm | 2.24 m/s, 340° | - | - |
| 1777989176 | -2.78° C | 86% | 1022.3 hPa | 0 mm | 1.34 m/s, 329° | - | - |
| 1777988876 | -2.78° C | 87% | 1022.3 hPa | 0 mm | 1.34 m/s, 330° | - | - |
| 1777988576 | -2.78° C | 87% | 1022.3 hPa | 0 mm | 0.89 m/s, 330° | - | - |
| 1777988246 | -3.33° C | 87% | 1022.2 hPa | 0 mm | 1.34 m/s, 329° | - | - |
| 1777987946 | -3.33° C | 87% | 1022.3 hPa | 0 mm | 0.89 m/s, 328° | - | - |
| 1777987646 | -3.33° C | 87% | 1022.3 hPa | 0 mm | 1.34 m/s, 327° | - | - |
| 1777987346 | -3.89° C | 87% | 1022.3 hPa | 0 mm | 0.89 m/s, 327° | - | - |
| 1777987046 | -3.89° C | 88% | 1022.3 hPa | 0 mm | 1.34 m/s, 324° | - | - |
| 1777986716 | -3.89° C | 87% | 1022.3 hPa | 0 mm | 0.89 m/s, 298° | - | - |
| 1777986416 | -4.44° C | 88% | 1022.3 hPa | 0 mm | 0.89 m/s, 296° | - | - |
| 1777986116 | -4.44° C | 88% | 1022.2 hPa | 0 mm | 0.89 m/s, 296° | - | - |
| 1777985786 | -4.44° C | 88% | 1022.2 hPa | 0 mm | 0.89 m/s, 296° | - | - |
| 1777985456 | -5° C | 88% | 1022.1 hPa | 0 mm | 0.89 m/s, 296° | - | - |
| 1777985156 | -5° C | 88% | 1022.2 hPa | 0 mm | 0.89 m/s, 296° | - | - |
* Rain latest hour (hover to see other rain measurements)
** Current wind speed in m/s (hover to see current wind gust speed)